time_stamp(utc),avg(mph),gust(mph),direction(deg),12m_air_temp(f),sonic_u(cm/s),sonic_v(cm/s),sonic_w(cm/s),pressure,2m_air_temp(f),pyranometer(W/m^2)
"2018-05-05 00:02:07+00",18.8,21.8,,65.2,-463,-716,25,1010.41,65,0
"2018-05-05 00:07:07+00",21.7,24.7,,65.6,-473,-823,-13,1010.42,65.3,0
"2018-05-05 00:12:07+00",22.8,25.8,,65.9,-511,-862,-10,1010.36,65.6,0
"2018-05-05 00:17:07+00",21.8,25.8,,65.6,-433,-846,7,1010.25,65.4,0
"2018-05-05 00:22:07+00",22.4,25.4,,65.3,-471,-853,-3,1010.15,65.3,0
"2018-05-05 00:27:07+00",19.7,22.7,,65.1,-471,-740,-8,1010.31,65,0
"2018-05-05 00:32:07+00",17.2,21.2,,65.3,-406,-640,-6,1010.48,65.2,0
"2018-05-05 00:37:07+00",14.0,16.0,,64.8,-366,-521,16,1010.67,64.8,0
"2018-05-05 00:42:07+00",15.5,17.5,,64.3,-331,-596,5,1010.75,64.4,0
"2018-05-05 00:47:07+00",15.4,18.4,,64.5,-369,-581,14,1010.77,64.3,0
"2018-05-05 00:52:07+00",15.8,21.8,,64.8,-395,-577,12,1010.76,64.5,0
"2018-05-05 00:57:07+00",21.5,26.5,,65.7,-612,-785,25,1010.72,65.3,0
"2018-05-05 01:02:07+00",20.4,23.4,,65.2,-563,-745,33,1010.82,65.1,0
"2018-05-05 01:07:07+00",22.9,25.9,,64.7,-632,-825,2,1010.75,64.8,0
"2018-05-05 01:12:07+00",22.0,25.0,,64.4,-590,-802,4,1010.71,64.5,0
"2018-05-05 01:17:07+00",19.4,21.4,,64.3,-514,-719,7,1010.75,64.2,0
"2018-05-05 01:22:07+00",18.2,20.2,,64.1,-485,-666,12,1010.81,64.1,0
"2018-05-05 01:27:07+00",17.9,19.9,,64,-499,-646,7,1010.94,63.9,0
"2018-05-05 01:32:07+00",19.2,22.2,,64,-560,-662,8,1010.92,63.9,0
"2018-05-05 01:37:07+00",17.8,20.8,,63.9,-474,-660,16,1010.83,63.8,0
"2018-05-05 01:42:07+00",20.6,23.6,,63.7,-610,-727,1,1010.89,63.7,0
"2018-05-05 01:47:07+00",18.3,21.3,,63.5,-539,-643,25,1010.99,63.5,0
"2018-05-05 01:52:07+00",18.6,20.6,,63.5,-544,-654,20,1011.01,63.4,0
"2018-05-05 01:57:07+00",18.5,21.5,,63.4,-557,-632,16,1011.13,63.3,0
"2018-05-05 02:02:07+00",20.6,23.6,,63.2,-646,-690,29,1011.14,63.2,0
"2018-05-05 02:07:07+00",19.4,22.4,,62.9,-607,-646,27,1011.28,63,0
"2018-05-05 02:12:07+00",19.3,21.3,,62.7,-597,-645,-2,1011.32,62.8,0
"2018-05-05 02:17:07+00",21.3,23.3,,62.6,-652,-719,-5,1011.3,62.6,0
"2018-05-05 02:22:07+00",20.4,24.4,,62.7,-572,-739,7,1011.31,62.7,0
"2018-05-05 02:27:07+00",19.6,22.6,,62.9,-565,-698,15,1011.17,62.8,0
"2018-05-05 02:32:07+00",20.7,22.7,,63,-616,-705,0,1011.18,62.8,0
"2018-05-05 02:37:07+00",20.1,22.1,,63.1,-626,-651,35,1011.21,62.9,0
"2018-05-05 02:42:07+00",21.5,25.5,,62.9,-682,-677,10,1011.32,62.8,0
"2018-05-05 02:47:07+00",21.1,24.1,,62.8,-668,-683,22,1011.28,62.7,0
"2018-05-05 02:52:07+00",21.7,25.7,,63,-699,-653,14,1011.35,62.8,0
"2018-05-05 02:57:07+00",16.4,19.4,,62.5,-619,-396,29,1011.75,62.6,0
"2018-05-05 03:02:07+00",18.3,21.3,,61.9,-618,-493,2,1011.68,62.2,0
"2018-05-05 03:07:07+00",17.6,18.6,,61.9,-519,-609,10,1011.4,61.9,0
"2018-05-05 03:12:07+00",16.1,18.1,,61.9,-472,-563,5,1011.37,61.8,0
"2018-05-05 03:17:07+00",18.4,20.4,,61.7,-473,-685,1,1011.23,61.7,0
"2018-05-05 03:22:07+00",16.8,20.8,,61.7,-437,-623,6,1011.16,61.6,0
"2018-05-05 03:27:07+00",15.4,18.4,,61.9,-429,-561,17,1011.08,61.7,0
"2018-05-05 03:32:07+00",15.3,16.3,,62,-468,-518,-3,1011.05,61.8,0
"2018-05-05 03:37:07+00",15.1,17.1,,62.1,-429,-540,5,1011.06,61.9,0
"2018-05-05 03:42:07+00",13.1,15.1,,61.9,-405,-433,6,1011.23,61.8,0
"2018-05-05 03:47:07+00",13.4,15.4,,62,-406,-455,10,1011.4,61.9,0
"2018-05-05 03:52:07+00",14.5,16.5,,62.3,-435,-504,12,1011.38,62,0
"2018-05-05 03:57:07+00",16.1,18.1,,62.5,-498,-539,6,1011.26,62.1,0
"2018-05-05 04:02:07+00",15.3,16.3,,62.8,-465,-518,5,1011.23,62.3,0
"2018-05-05 04:07:07+00",15.0,16.0,,63,-422,-531,9,1011.19,62.5,0
"2018-05-05 04:12:07+00",13.9,14.9,,63.2,-401,-490,2,1011.24,62.5,0
"2018-05-05 04:17:07+00",14.0,17.0,,63.1,-385,-509,10,1011.21,62.6,0
"2018-05-05 04:22:07+00",14.5,17.5,,63,-435,-492,-2,1011.29,62.5,0
"2018-05-05 04:27:07+00",13.0,16.0,,62.8,-401,-435,7,1011.3,62.4,0
"2018-05-05 04:32:07+00",14.7,16.7,,62.9,-465,-466,6,1011.36,62.4,0
"2018-05-05 04:37:07+00",14.9,16.9,,62.8,-465,-487,3,1011.29,62.3,0
"2018-05-05 04:42:07+00",13.3,14.3,,62.5,-424,-404,-2,1011.27,62.1,0
"2018-05-05 04:47:07+00",13.6,14.6,,62.8,-466,-355,6,1011.25,62.2,0
"2018-05-05 04:52:07+00",11.4,13.4,,62.9,-496,-233,7,1011.43,62.2,0
"2018-05-05 04:57:07+00",13.5,14.5,,63.2,-587,-45,9,1011.81,62.4,0
"2018-05-05 05:02:07+00",14.9,16.9,,63.6,-595,269,36,1012.18,62.7,0
"2018-05-05 05:07:07+00",12.5,13.5,,64.8,-547,37,17,1012.08,63.2,0
"2018-05-05 05:12:07+00",10.4,11.4,,67.2,-459,62,23,1012.07,64,0
"2018-05-05 05:17:07+00",10.2,11.2,,68.1,-449,52,15,1012.09,64.8,0
"2018-05-05 05:22:07+00",11.4,11.4,,69,-497,134,18,1012.14,65.2,0
"2018-05-05 05:27:07+00",12.2,13.2,,69.8,-522,173,23,1012.2,65.2,0
"2018-05-05 05:32:07+00",8.6,9.6,,68.8,-358,130,13,1012.2,65.2,0
"2018-05-05 05:37:07+00",7.4,8.4,,68.2,-300,120,7,1012.23,65.2,0
"2018-05-05 05:42:07+00",5.7,5.7,,68.1,-243,-18,5,1012.15,65,0
"2018-05-05 05:47:07+00",7.5,7.5,,66.1,-241,-247,3,1012.12,64.4,0
"2018-05-05 05:52:07+00",8.1,9.1,,66.3,-312,-179,10,1012.2,64.1,0
"2018-05-05 05:57:07+00",7.8,8.8,,67.2,-324,-164,3,1012.06,64.3,0
"2018-05-05 06:02:07+00",7.4,8.4,,65.7,-269,-178,9,1012.1,64.3,0
"2018-05-05 06:07:07+00",6.8,7.8,,65.7,-293,-113,3,1012.11,64,0
"2018-05-05 06:12:07+00",7.5,7.5,,67,-314,-47,5,1012.18,63.8,0
"2018-05-05 06:17:07+00",8.0,8.0,,67.3,-325,-75,8,1012.16,63.6,0
"2018-05-05 06:22:07+00",7.3,8.3,,65.9,-283,-159,8,1012.23,63.4,0
"2018-05-05 06:27:07+00",7.4,8.4,,65.2,-279,-170,9,1012.12,63.2,0
"2018-05-05 06:32:07+00",6.1,7.1,,64.8,-257,-91,8,1012.31,63,0
"2018-05-05 06:37:07+00",5.8,6.8,,64.4,-238,-47,5,1012.28,62.9,0
"2018-05-05 06:42:07+00",5.9,5.9,,64.2,-246,-40,-5,1012.32,62.8,0
"2018-05-05 06:47:07+00",6.8,7.8,,65.3,-282,80,46,1012.5,62.7,0
"2018-05-05 06:52:07+00",17.8,20.8,,70.2,-565,552,53,1012.41,65,0
"2018-05-05 06:57:07+00",15.5,17.5,,71.5,-508,464,43,1012.44,67.5,0
"2018-05-05 07:02:07+00",16.8,19.8,,71.6,-503,559,45,1012.41,68.3,0
"2018-05-05 07:07:07+00",16.0,18.0,,71.8,-407,579,39,1012.53,68.9,0
"2018-05-05 07:12:07+00",14.7,16.7,,71.5,-354,551,35,1012.63,69,0
"2018-05-05 07:17:07+00",15.3,16.3,,71.7,-421,529,35,1012.68,69.1,0
"2018-05-05 07:22:07+00",15.3,16.3,,71.5,-486,488,39,1012.83,69,0
"2018-05-05 07:27:07+00",15.1,17.1,,71.4,-451,501,36,1012.91,68.6,0
"2018-05-05 07:32:07+00",17.3,19.3,,71.2,-501,594,38,1013.01,68.5,0
"2018-05-05 07:37:07+00",15.5,16.5,,70.7,-481,499,44,1013.22,68.2,0
"2018-05-05 07:42:07+00",14.9,15.9,,70.1,-439,503,39,1013.43,67.9,0
"2018-05-05 07:47:07+00",19.8,22.8,,70.6,-544,701,51,1013.35,68,0
"2018-05-05 07:52:07+00",14.2,15.2,,70.4,-353,523,36,1013.48,68.2,0
"2018-05-05 07:57:07+00",13.9,14.9,,70,-337,507,32,1013.52,67.8,0
"2018-05-05 08:02:07+00",14.6,16.6,,70.3,-337,555,36,1013.61,68.1,0
"2018-05-05 08:07:07+00",15.6,17.6,,70.1,-349,595,31,1013.7,68.1,0
"2018-05-05 08:12:07+00",13.9,14.9,,69.3,-329,521,28,1013.8,67.6,0
"2018-05-05 08:17:07+00",13.0,15.0,,69.2,-345,471,38,1013.96,67.1,0
"2018-05-05 08:22:07+00",14.6,15.6,,69.3,-440,484,37,1013.94,66.8,0
"2018-05-05 08:27:07+00",18.8,20.8,,69.6,-507,656,56,1014.01,67.3,0
"2018-05-05 08:32:07+00",17.9,21.9,,68.9,-364,694,39,1014.12,67.3,0
"2018-05-05 08:37:07+00",18.8,21.8,,69,-310,769,35,1014.16,67.3,0
"2018-05-05 08:42:07+00",17.8,21.8,,68.8,-350,709,35,1014.19,67.2,0
"2018-05-05 08:47:07+00",15.0,17.0,,68.6,-323,585,43,1014.24,67.1,0
"2018-05-05 08:52:07+00",13.4,14.4,,68.2,-268,529,23,1014.39,66.7,0
"2018-05-05 08:57:07+00",12.1,14.1,,68,-266,459,27,1014.43,66.5,0
"2018-05-05 09:02:07+00",11.2,12.2,,68,-232,436,24,1014.55,66.2,0
"2018-05-05 09:07:07+00",9.8,10.8,,67.8,-195,379,27,1014.54,65.8,0
"2018-05-05 09:12:07+00",11.5,12.5,,67.6,-253,444,27,1014.59,65.4,0
"2018-05-05 09:17:07+00",12.2,13.2,,67.9,-246,477,29,1014.52,65.3,0
"2018-05-05 09:22:07+00",11.1,12.1,,67.5,-251,417,31,1014.59,65.3,0
"2018-05-05 09:27:07+00",11.1,12.1,,67.3,-215,442,25,1014.61,65.2,0
"2018-05-05 09:32:07+00",9.2,10.2,,66.8,-170,360,-25,1014.66,65,0
"2018-05-05 09:37:07+00",8.3,9.3,,66.6,-153,321,-29,1014.77,64.8,0
"2018-05-05 09:42:07+00",9.0,10.0,,66.6,-169,353,19,1014.97,64.6,0
"2018-05-05 09:47:07+00",10.3,13.3,,66.8,-214,398,21,1014.93,64.5,0
"2018-05-05 09:52:07+00",11.0,13.0,,66.8,-185,453,33,1014.94,64.8,0
"2018-05-05 09:57:07+00",13.0,16.0,,67,-296,484,36,1015.17,65.1,0
"2018-05-05 10:02:07+00",14.0,16.0,,67.1,-321,541,27,1015.34,65.4,0
"2018-05-05 10:07:07+00",14.0,16.0,,66.9,-314,524,25,1015.34,65.4,0
"2018-05-05 10:12:07+00",16.1,18.1,,67.1,-391,607,42,1015.46,65.3,0
"2018-05-05 10:17:07+00",13.2,15.2,,66.8,-337,487,41,1015.53,65.3,0
"2018-05-05 10:22:07+00",14.4,16.4,,66.8,-355,532,32,1015.55,65.2,0
"2018-05-05 10:27:07+00",14.2,17.2,,66.7,-308,547,47,1015.64,65.2,0
"2018-05-05 10:32:07+00",15.6,18.6,,66.8,-377,588,51,1015.91,65.2,0
"2018-05-05 10:37:07+00",16.4,18.4,,66.6,-359,631,41,1015.94,65.2,0
"2018-05-05 10:42:07+00",14.7,16.7,,66.4,-334,566,45,1015.99,65.1,0
"2018-05-05 10:47:07+00",16.3,18.3,,66.2,-310,657,42,1015.81,65,0
"2018-05-05 10:52:07+00",16.6,18.6,,65.9,-268,674,44,1015.86,64.8,0
"2018-05-05 10:57:07+00",15.5,17.5,,65.7,-246,641,24,1015.91,64.6,0
"2018-05-05 11:02:07+00",13.8,15.8,,65.6,-244,565,32,1015.94,64.5,0
"2018-05-05 11:07:07+00",13.8,15.8,,65.5,-222,569,29,1016.01,64.5,0
"2018-05-05 11:12:07+00",13.4,15.4,,65.5,-159,568,22,1016.07,64.4,0
"2018-05-05 11:17:07+00",14.2,15.2,,65.5,-199,609,28,1016.26,64.4,3
"2018-05-05 11:22:07+00",13.8,15.8,,65.4,-186,578,28,1016.28,64.4,8.1
"2018-05-05 11:27:07+00",18.2,21.2,,65.5,-220,771,34,1016.34,64.4,13.8
"2018-05-05 11:32:07+00",15.4,16.4,,65.4,-197,644,20,1016.43,64.6,20.2
"2018-05-05 11:37:07+00",13.7,15.7,,65.3,-115,567,19,1016.49,64.6,10.8
"2018-05-05 11:42:07+00",14.1,17.1,,65.2,-137,605,30,1016.57,64.5,5.2
"2018-05-05 11:47:07+00",16.5,18.5,,65,-31,722,21,1016.76,64.3,9.1
"2018-05-05 11:52:07+00",16.0,18.0,,64.9,-65,706,36,1016.89,64.3,28.3
"2018-05-05 11:57:07+00",15.2,17.2,,64.9,-105,660,16,1016.97,64.4,37.9
"2018-05-05 12:02:07+00",15.4,17.4,,65,-94,674,17,1017.21,64.5,35.1
"2018-05-05 12:07:07+00",13.0,15.0,,65,-80,563,24,1017.25,64.6,50.3
"2018-05-05 12:12:07+00",12.9,14.9,,64.9,-91,558,18,1017.19,64.9,79.9
"2018-05-05 12:17:07+00",14.7,17.7,,65,-46,646,45,1017.22,65.1,96.4
"2018-05-05 12:22:07+00",13.9,14.9,,65.1,-156,588,16,1017.29,65.5,142.9
"2018-05-05 12:27:07+00",12.9,14.9,,65.4,-180,544,25,1017.59,66,108.3
"2018-05-05 12:32:07+00",10.1,12.1,,65.4,-115,423,31,1017.65,66,71.6
"2018-05-05 12:37:07+00",12.4,14.4,,65.3,-124,534,46,1017.77,66,64.6
"2018-05-05 12:42:07+00",15.4,17.4,,65.1,-174,657,13,1017.84,65.8,80.2
"2018-05-05 12:47:07+00",15.1,18.1,,65.1,-50,657,21,1017.92,65.7,103.7
"2018-05-05 12:52:07+00",13.4,16.4,,65.2,-55,586,15,1017.99,66,84.6
"2018-05-05 12:57:07+00",15.9,17.9,,65.2,-32,694,19,1018.17,66.1,71.6
"2018-05-05 13:02:07+00",13.0,15.0,,65.2,-62,569,15,1018.3,66.1,89.8
"2018-05-05 13:07:07+00",11.7,13.7,,65.3,-77,513,22,1018.26,66.3,112.8
"2018-05-05 13:12:07+00",14.2,16.2,,65.5,-44,620,23,1018.37,66.7,189.8
"2018-05-05 13:17:07+00",12.9,14.9,,65.8,-58,568,31,1018.47,67.5,200.9
"2018-05-05 13:22:07+00",10.9,13.9,,65.9,-57,478,45,1018.41,67.8,254.7
"2018-05-05 13:27:07+00",14.9,16.9,,65.8,-287,598,28,1018.47,68.2,218.1
"2018-05-05 13:32:07+00",14.7,18.7,,65.8,-147,640,58,1018.53,67.8,165.8
"2018-05-05 13:37:07+00",15.2,17.2,,65.8,-186,644,16,1018.6,67.5,144.6
"2018-05-05 13:42:07+00",14.3,16.3,,65.7,-29,622,7,1018.56,67.4,167.8
"2018-05-05 13:47:07+00",13.7,15.7,,65.9,-58,594,28,1018.54,67.9,180.3
"2018-05-05 13:52:07+00",10.4,11.4,,66.1,-166,423,32,1018.54,68.2,159.4
"2018-05-05 13:57:07+00",10.4,14.4,,65.8,-137,421,47,1018.46,67.8,154.4
"2018-05-05 14:02:07+00",11.2,13.2,,65.8,-254,421,25,1018.6,67.6,147
"2018-05-05 14:07:07+00",11.4,13.4,,65.9,-103,486,-7,1018.74,67.7,181
"2018-05-05 14:12:07+00",9.5,12.5,,66.2,-183,373,67,1018.81,68,229.9
"2018-05-05 14:17:07+00",8.8,10.8,,66.1,-155,347,19,1018.94,68.4,249.7
"2018-05-05 14:22:07+00",9.4,10.4,,66.2,-176,365,7,1019.08,68.9,292.1
"2018-05-05 14:27:07+00",9.2,11.2,,66.4,-115,385,27,1019.13,69.4,203.1
"2018-05-05 14:32:07+00",7.9,9.9,,66.5,-43,328,36,1019.15,69.5,207.5
"2018-05-05 14:37:07+00",8.7,10.7,,66.6,-23,375,13,1019.21,69.6,130.3
"2018-05-05 14:42:07+00",5.5,7.5,,66.6,72,198,35,1019.18,69.3,254.4
"2018-05-05 14:47:07+00",5.9,6.9,,66.8,1,237,-12,1019.22,69.8,292.2
"2018-05-05 14:52:07+00",6.6,8.6,,67.1,-184,217,38,1019.35,69.9,139.2
"2018-05-05 14:57:07+00",7.3,9.3,,67,-3,312,15,1019.35,69.4,166.7
"2018-05-05 15:02:07+00",6.0,7.0,,67.2,-46,247,6,1019.37,69.6,189.6
"2018-05-05 15:07:07+00",3.5,4.5,,67.2,-137,-54,-8,1019.42,69.9,327.1
"2018-05-05 15:12:07+00",1.1,2.1,,67.5,-11,-22,20,1019.42,70.6,255.5
"2018-05-05 15:17:07+00",2.8,4.8,,68.1,-40,89,31,1019.4,71.2,289.5
"2018-05-05 15:22:07+00",2.9,2.9,,68.6,-108,-48,3,1019.39,71.9,213.4
"2018-05-05 15:27:07+00",2.6,3.6,,68.7,-107,12,16,1019.48,72.3,328.8
"2018-05-05 15:32:07+00",4.7,5.7,,68.9,-34,-186,21,1019.43,71.8,371.2
"2018-05-05 15:37:07+00",6.5,7.5,,68.6,156,-215,-4,1019.41,71.5,384.3
"2018-05-05 15:42:07+00",7.9,8.9,,67.6,245,-241,26,1019.48,70.7,302.9
"2018-05-05 15:47:07+00",7.1,9.1,,67.7,89,-284,-9,1019.43,70.6,357.8
"2018-05-05 15:52:07+00",6.8,7.8,,68,-47,-274,-3,1019.51,70.2,224.7
"2018-05-05 15:57:07+00",9.9,10.9,,66.2,206,-368,-26,1019.52,68.7,373.7
"2018-05-05 16:02:07+00",9.1,10.1,,65.7,232,-321,-16,1019.61,68.4,300.4
"2018-05-05 16:07:07+00",11.8,12.8,,64.6,440,-268,-24,1019.62,68.2,324.4
"2018-05-05 16:12:07+00",10.1,11.1,,64.1,422,-147,9,1019.6,67.9,223.4
"2018-05-05 16:17:07+00",11.1,12.1,,63.4,437,-227,-17,1019.61,67.3,236.5
"2018-05-05 16:22:07+00",11.0,13.0,,62.2,410,-256,-6,1019.6,66.5,240.2
"2018-05-05 16:27:07+00",12.4,13.4,,61.2,468,-293,-3,1019.53,65.3,257.7
"2018-05-05 16:32:07+00",11.6,13.6,,61.1,442,-261,11,1019.48,64.9,302.3
"2018-05-05 16:37:07+00",11.1,13.1,,61.3,434,-251,39,1019.4,65,291.5
"2018-05-05 16:42:07+00",12.2,13.2,,61.1,453,-298,-10,1019.41,64.6,248.6
"2018-05-05 16:47:07+00",10.6,12.6,,61.1,435,-203,57,1019.43,64.4,303.5
"2018-05-05 16:52:07+00",11.9,13.9,,61,469,-241,-9,1019.39,64.5,341.3
"2018-05-05 16:57:07+00",12.6,13.6,,61.2,487,-270,16,1019.45,64.7,287.1
"2018-05-05 17:02:07+00",11.1,12.1,,61.6,401,-290,23,1019.44,64.8,222.6
"2018-05-05 17:07:07+00",11.0,13.0,,61.2,317,-348,18,1019.58,64.1,218.6
"2018-05-05 17:12:07+00",11.3,12.3,,61.1,301,-382,-7,1019.52,63.6,266.9
"2018-05-05 17:17:07+00",10.8,11.8,,61.2,337,-338,23,1019.41,64,376.9
"2018-05-05 17:22:07+00",11.0,13.0,,61.9,364,-305,23,1019.28,65,376.6
"2018-05-05 17:27:07+00",12.5,13.5,,62,495,-237,28,1019.12,65.6,357.2
"2018-05-05 17:32:07+00",11.3,13.3,,61.3,423,-270,22,1019.09,65.5,209.6
"2018-05-05 17:37:07+00",12.0,13.0,,60.6,428,-305,34,1019.1,64.5,210
"2018-05-05 17:42:07+00",12.8,14.8,,60.3,485,-297,29,1019.1,64.4,236.5
"2018-05-05 17:47:07+00",12.8,14.8,,60.8,458,-330,26,1019.15,64.6,283.3
"2018-05-05 17:52:07+00",13.7,14.7,,61.1,472,-381,-18,1019.12,65,285.2
"2018-05-05 17:57:07+00",13.5,13.5,,60.9,449,-382,-29,1019.25,64.1,207.8
"2018-05-05 18:02:07+00",12.4,14.4,,60.8,435,-318,-4,1019.14,64,250.9
"2018-05-05 18:07:07+00",13.0,14.0,,61.1,441,-356,-23,1019.03,64.2,238.4
"2018-05-05 18:12:07+00",14.0,15.0,,60.9,497,-355,-19,1018.97,64.5,191
"2018-05-05 18:17:07+00",12.6,13.6,,60.7,437,-325,2,1019.07,63.9,200.9
"2018-05-05 18:22:07+00",13.6,15.6,,60.1,502,-318,-11,1019.01,63.6,170.6
"2018-05-05 18:27:07+00",13.0,15.0,,59.5,476,-321,-20,1019.04,62.7,95.2
"2018-05-05 18:32:07+00",10.7,11.7,,59.3,386,-276,21,1019.11,62,104
"2018-05-05 18:37:07+00",11.8,12.8,,59.5,433,-287,-18,1018.93,61.9,97.5
"2018-05-05 18:42:07+00",12.2,13.2,,59.5,447,-287,-12,1019.01,61.7,95.6
"2018-05-05 18:47:07+00",10.0,12.0,,59.6,341,-264,17,1019.06,61.6,91
"2018-05-05 18:52:07+00",9.4,10.4,,59.9,271,-303,-5,1019.04,61.7,101.8
"2018-05-05 18:57:07+00",10.1,12.1,,59.9,261,-342,40,1019.11,61.4,107.8
"2018-05-05 19:02:07+00",10.1,12.1,,59.9,330,-284,23,1019.2,61.5,154.6
"2018-05-05 19:07:07+00",11.6,12.6,,60.1,387,-330,-23,1019.03,62.1,170.7
"2018-05-05 19:12:07+00",10.3,12.3,,60.5,263,-368,-6,1018.94,62.6,161.2
"2018-05-05 19:17:07+00",10.6,11.6,,60.7,258,-382,2,1018.95,62.4,113.9
"2018-05-05 19:22:07+00",10.9,12.9,,60.5,327,-348,-11,1018.96,62.3,80.1
"2018-05-05 19:27:07+00",12.0,14.0,,59.5,256,-442,-11,1019.05,61.1,89.8
"2018-05-05 19:32:07+00",9.9,10.9,,59.4,212,-378,22,1018.95,60.7,104.3
"2018-05-05 19:37:07+00",12.2,14.2,,59.6,238,-465,-10,1019.04,60.8,98.5
"2018-05-05 19:42:07+00",12.0,14.0,,58.6,209,-475,-16,1019.06,59.9,91.2
"2018-05-05 19:47:07+00",10.4,11.4,,58.9,259,-363,17,1018.94,59.9,77.6
"2018-05-05 19:52:07+00",12.2,14.2,,58.8,287,-444,5,1018.7,59.9,68.2
"2018-05-05 19:57:07+00",12.8,13.8,,58.7,265,-484,-19,1018.7,59.7,68.9
"2018-05-05 20:02:07+00",11.5,13.5,,59,205,-458,-1,1018.89,59.9,58.5
"2018-05-05 20:07:07+00",10.7,11.7,,58.7,169,-427,-16,1018.84,59.6,50.8
"2018-05-05 20:12:07+00",9.1,11.1,,58.6,87,-373,-6,1019.15,59.6,68.1
"2018-05-05 20:17:07+00",10.0,12.0,,58.3,116,-403,-4,1019.21,59.2,59.1
"2018-05-05 20:22:07+00",10.4,13.4,,58.1,161,-417,-10,1018.92,59,26.2
"2018-05-05 20:27:07+00",9.3,11.3,,57.9,112,-373,-9,1019.02,58.6,18.3
"2018-05-05 20:32:07+00",10.3,12.3,,58,107,-431,-11,1018.95,58.7,22.4
"2018-05-05 20:37:07+00",10.8,11.8,,58,158,-441,-15,1018.81,58.5,24.4
"2018-05-05 20:42:07+00",11.7,13.7,,57.9,63,-497,-18,1019.15,58.5,25.7
"2018-05-05 20:47:07+00",11.3,14.3,,57.9,45,-485,-17,1019.01,58.3,37.9
"2018-05-05 20:52:07+00",9.8,13.8,,58.2,65,-414,-2,1018.83,58.5,53.3
"2018-05-05 20:57:07+00",9.5,10.5,,58.4,55,-402,6,1018.85,58.8,34
"2018-05-05 21:02:07+00",10.8,13.8,,58.4,32,-463,-8,1018.85,58.8,24.5
"2018-05-05 21:07:07+00",10.3,12.3,,58.5,63,-440,-6,1018.88,58.8,27.5
"2018-05-05 21:12:07+00",11.3,13.3,,58.6,64,-458,-15,1018.87,58.9,29
"2018-05-05 21:17:07+00",10.8,12.8,,58.6,74,-458,4,1018.87,59,36.7
"2018-05-05 21:22:07+00",11.5,13.5,,58.6,38,-494,-17,1018.93,59,41.1
"2018-05-05 21:27:07+00",10.6,13.6,,58.6,-44,-447,-13,1018.9,59,55.6
"2018-05-05 21:32:07+00",12.9,15.9,,58.9,-26,-543,-9,1018.99,59.2,62.5
"2018-05-05 21:37:07+00",15.4,18.4,,59.1,-131,-664,-30,1018.98,59.5,51.5
"2018-05-05 21:42:07+00",13.5,17.5,,58.9,-179,-561,17,1019.04,59.4,43.5
"2018-05-05 21:47:07+00",12.1,15.1,,59,-114,-515,-7,1019.06,59.4,37.4
"2018-05-05 21:52:07+00",11.5,13.5,,59.3,-76,-509,-31,1018.98,59.7,40.8
"2018-05-05 21:57:07+00",10.5,12.5,,59.6,-94,-440,-9,1019.02,59.8,38.8
"2018-05-05 22:02:07+00",12.3,16.3,,59.6,-149,-502,-5,1018.92,59.9,24.8
"2018-05-05 22:07:07+00",10.8,15.8,,59.6,-129,-438,17,1018.91,59.9,19.5
"2018-05-05 22:12:07+00",13.6,19.6,,59.1,-193,-549,30,1018.86,59.5,19.3
"2018-05-05 22:17:07+00",15.9,18.9,,59.1,-297,-628,-1,1018.95,59.4,11.8
"2018-05-05 22:22:07+00",14.0,16.0,,59,-251,-542,-13,1019.01,59.3,3.6
"2018-05-05 22:27:07+00",14.8,16.8,,59.1,-262,-582,-11,1018.96,59.4,0.2
"2018-05-05 22:32:07+00",12.6,13.6,,59.2,-211,-497,-9,1018.84,59.4,0
"2018-05-05 22:37:07+00",12.2,14.2,,59.3,-165,-497,-19,1018.59,59.4,0
"2018-05-05 22:42:07+00",10.1,11.1,,59.2,-142,-407,6,1018.57,59.4,0
"2018-05-05 22:47:07+00",11.4,14.4,,59.1,-134,-471,-8,1018.47,59.3,0
"2018-05-05 22:52:07+00",12.1,13.1,,59,-175,-485,-8,1018.4,59.1,0
"2018-05-05 22:57:07+00",11.1,13.1,,58.9,-151,-448,-10,1018.38,59,0
"2018-05-05 23:02:07+00",12.4,14.4,,58.8,-229,-478,-12,1018.49,58.9,0
"2018-05-05 23:07:07+00",11.8,14.8,,58.8,-159,-479,-1,1018.37,58.9,0
"2018-05-05 23:12:07+00",14.4,16.4,,58.7,-245,-572,-6,1018.51,58.8,0
"2018-05-05 23:17:07+00",12.6,14.6,,58.6,-251,-488,-5,1018.66,58.7,0
"2018-05-05 23:22:07+00",13.5,16.5,,58.6,-232,-530,-6,1018.68,58.6,0
"2018-05-05 23:27:07+00",13.1,14.1,,58.7,-241,-506,-7,1018.61,58.6,0
"2018-05-05 23:32:07+00",10.8,11.8,,58.8,-278,-397,10,1018.8,58.7,0
"2018-05-05 23:37:07+00",12.8,15.8,,59,-251,-498,1,1018.57,58.9,0
"2018-05-05 23:42:07+00",10.6,13.6,,59.1,-175,-415,5,1018.57,58.9,0
"2018-05-05 23:47:07+00",9.8,10.8,,59.1,-186,-378,9,1018.65,58.9,0
"2018-05-05 23:52:07+00",12.0,14.0,,59.1,-234,-462,-3,1018.8,58.9,0
"2018-05-05 23:57:07+00",12.4,14.4,,59.1,-261,-477,6,1019.04,58.9,0
